TimePST,TemperatureF,Dew PointF,Humidity,Sea Level PressureIn,VisibilityMPH,Wind Direction,Wind SpeedMPH,Gust SpeedMPH,PrecipitationIn,Events,Conditions,WindDirDegrees,DateUTC
12:52 AM,41.0,12.0,31,30.02,-9999.0,NE,20.7,28.8,N/A,,Unknown,50,2013-01-02 08:52:00
1:52 AM,42.1,10.9,28,30.01,-9999.0,NE,21.9,28.8,N/A,,Unknown,50,2013-01-02 09:52:00
2:52 AM,42.1,10.0,27,30.01,-9999.0,NE,17.3,-,N/A,,Unknown,40,2013-01-02 10:52:00
3:52 AM,42.1,10.0,27,30.00,-9999.0,NE,16.1,28.8,N/A,,Unknown,50,2013-01-02 11:52:00
4:52 AM,43.0,9.0,25,30.00,-9999.0,NNE,18.4,26.5,N/A,,Unknown,30,2013-01-02 12:52:00
5:52 AM,42.1,9.0,26,29.99,-9999.0,NE,20.7,28.8,N/A,,Unknown,50,2013-01-02 13:52:00
6:52 AM,43.0,8.1,24,30.00,-9999.0,ENE,21.9,29.9,N/A,,Unknown,60,2013-01-02 14:52:00
7:52 AM,45.0,9.0,23,30.00,-9999.0,NE,24.2,29.9,N/A,,Unknown,50,2013-01-02 15:52:00
8:52 AM,48.0,9.0,21,30.02,-9999.0,ENE,19.6,31.1,N/A,,Unknown,60,2013-01-02 16:52:00
9:52 AM,48.9,8.1,19,30.03,-9999.0,NE,23.0,32.2,N/A,,Unknown,50,2013-01-02 17:52:00
10:52 AM,51.1,8.1,18,30.01,-9999.0,NE,23.0,40.3,N/A,,Unknown,50,2013-01-02 18:52:00
11:52 AM,53.1,9.0,17,29.98,-9999.0,NE,19.6,29.9,N/A,,Unknown,40,2013-01-02 19:52:00
12:52 PM,54.0,7.0,15,29.96,-9999.0,ENE,25.3,33.4,N/A,,Unknown,60,2013-01-02 20:52:00
1:52 PM,54.0,7.0,15,29.95,-9999.0,ENE,25.3,31.1,N/A,,Unknown,70,2013-01-02 21:52:00
2:52 PM,53.1,8.1,16,29.95,-9999.0,ENE,19.6,27.6,N/A,,Unknown,70,2013-01-02 22:52:00
3:52 PM,51.1,10.9,20,29.96,-9999.0,East,19.6,-,N/A,,Unknown,80,2013-01-02 23:52:00
4:52 PM,46.9,12.0,24,29.99,-9999.0,ENE,12.7,-,N/A,,Unknown,70,2013-01-03 00:52:00
5:52 PM,44.1,12.0,27,29.99,-9999.0,ENE,18.4,24.2,N/A,,Unknown,70,2013-01-03 01:52:00
6:52 PM,43.0,12.0,28,30.00,-9999.0,ENE,16.1,-,N/A,,Unknown,70,2013-01-03 02:52:00
7:52 PM,42.1,10.9,28,30.01,-9999.0,North,4.6,-,N/A,,Unknown,10,2013-01-03 03:52:00
8:52 PM,35.1,12.9,40,30.01,-9999.0,Variable,5.8,-,N/A,,Unknown,0,2013-01-03 04:52:00
9:52 PM,48.0,9.0,21,29.99,-9999.0,NE,16.1,21.9,N/A,,Unknown,50,2013-01-03 05:52:00
10:52 PM,44.1,9.0,24,29.99,-9999.0,ENE,10.4,-,N/A,,Unknown,70,2013-01-03 06:52:00
11:52 PM,44.1,9.0,24,29.97,-9999.0,NNE,10.4,17.3,N/A,,Unknown,30,2013-01-03 07:52:00